SCP
0 0 0 0 0 0 0 0 0 0 0 2 3 4 3 2 2 2 2 1 1 1 1 1 1 0 0 0 1 1 1 1 1 1 1 0 0 0 0 0 0 0 0
0 0 0 0 0 0 0 0 0 0 0 0 2 4 3 2 2 2 2 2 1 1 1 0 1 0 1 1 0 1 0 1 1 1 2 1 0 0 0 0 0 0 0
0 0 0 0 0 0 0 0 0 0 0 0 2 4 3 3 3 3 2 2 1 1 0 0 0 1 1 1 1 1 1 1 1 1 2 1 0 0 0 0 0 0 0
0 0 0 0 0 0 0 0 0 0 0 0 0 1 2 2 1 1 1 1 0 -0 -0 0 1 1 1 1 1 1 2 2 2 1 0 0 0 0 0 0 0 0 0
0 0 0 0 0 0 0 0 0 0 0 0 0 1 1 1 1 1 1 1 0 0 0 -0 0 1 1 1 1 2 1 1 0 0 0 0 0 0 0 0 0 0 0
0 0 0 0 0 0 0 0 0 0 0 0 0 0 1 2 1 1 1 1 1 0 0 0 0 0 0 0 1 1 1 2 2 1 0 0 0 0 0 0 0 0 0
0 0 0 0 0 0 0 0 0 0 0 0 1 1 1 1 1 1 1 1 1 0 0 0 0 0 0 0 1 1 1 1 1 1 0 0 0 0 0 0 0 0 0
0 0 0 0 0 0 0 0 0 0 0 0 1 1 1 1 1 0 1 1 1 0 0 0 0 0 0 1 0 0 0 0 0 0 0 0 0 0 0 0 0 0 0
0 0 0 0 0 0 0 0 0 0 0 1 0 1 1 1 1 1 1 1 1 1 0 0 0 -0 0 0 0 0 0 0 0 0 0 0 0 0 0 0 0 0 0
0 0 0 0 0 0 0 0 0 0 0 0 1 1 1 1 1 1 1 1 1 0 0 0 -0 -0 0 0 0 0 0 0 0 0 0 0 0 0 0 0 0 0 0
0 0 0 0 0 0 0 0 0 0 0 0 0 0 0 0 0 0 0 0 0 0 0 0 -0 -0 0 0 0 0 0 0 0 0 0 0 0 0 0 0 0 0 0
0 0 0 0 0 0 -0 0 0 0 0 0 0 0 0 0 0 0 0 0 0 0 0 0 0 0 0 0 0 0 0 0 0 0 0 0 0 0 0 0 0 0 0
0 0 0 0 0 0 0 -0 -0 0 0 0 0 0 0 0 0 0 0 0 0 0 0 0 0 0 0 0 0 0 0 0 0 0 0 0 0 0 0 0 0 0 0
0 0 -0 0 -0 -0 -0 0 0 0 0 0 0 0 0 0 0 0 0 0 0 0 0 0 0 0 0 0 0 0 0 0 0 0 0 0 0 0 0 0 0 0 0
0 0 -0 -0 -0 -0 -0 0 0 0 0 0 0 0 0 0 0 0 0 0 0 0 0 0 0 0 0 0 0 0 0 0 0 0 0 0 0 0 0 0 0 0 0
0 0 -0 -0 -0 -0 -0 -0 0 0 0 0 0 0 -0 0 0 0 0 0 0 0 0 0 0 0 0 0 -0 0 0 0 0 0 0 0 0 0 0 0 0 0 0
-0 -0 -0 -0 -0 -0 -0 -0 -0 0 0 0 0 -0 -0 0 0 0 0 0 0 0 0 0 0 0 0 0 0 0 0 0 0 0 0 0 0 0 0 0 0 0 0
-0 -0 -0 0 -0 -0 -0 -0 0 -0 0 0 0 0 -0 0 0 0 0 0 0 0 0 0 0 0 0 0 0 0 0 0 0 0 0 0 0 0 0 0 0 0 0
-0 -0 -0 -0 -0 -0 -0 0 0 0 0 0 0 0 0 0 0 0 0 0 0 0 0 0 0 0 0 0 0 0 0 0 0 0 0 0 0 0 0 0 0 0 0
-0 -0 -0 0 0 -0 0 0 0 0 0 0 0 0 0 0 0 0 0 0 0 0 0 0 0 0 0 0 0 0 -0 -0 0 0 0 0 0 0 0 0 0 0 0
-0 0 -0 -0 -0 -0 0 0 0 0 0 0 0 0 0 0 0 0 0 0 0 0 0 0 0 0 0 -0 -0 -0 -0 0 -0 0 0 0 0 0 0 0 0 0 -0
-0 -0 0 -0 -0 0 0 0 0 0 0 0 0 0 0 0 0 -0 -0 -0 -0 -0 0 0 0 0 0 0 -0 -0 0 0 -0 0 0 0 0 0 0 0 -0 -0 -0
-0 0 -0 0 -0 0 0 0 0 0 0 0 0 0 -0 -0 -0 -0 -0 -0 -0 -0 0 0 0 0 0 -0 0 0 -0 0 0 0 -0 -0 -0 -0 -0 0 -0 -0 -0
-0 0 -0 0 0 0 0 -0 0 0 0 0 0 -0 -0 -0 -0 -0 0 -0 -0 0 0 0 -0 -0 0 0 0 -0 -0 -0 -0 -0 0 0 0 0 -0 -0 0 0 0
-0 0 0 0 0 0 0 0 0 0 0 0 0 -0 -0 -0 -0 0 -0 0 0 0 -0 -0 -0 -0 -0 -0 -0 -0 -0 -0 -0 -0 -0 -0 -0 -0 0 0 0 0 -0
-0 0 0 0 0 0 0 0 0 0 0 0 0 0 -0 -0 0 0 0 0 0 -0 0 0 0 0 0 0 -0 -0 -0 -0 0 -0 -0 -0 -0 -0 -0 -0 -0 0 0
Wind_Speed_500mb
39 46 50 48 50 48 51 59 65 64 60 57 58 49 54 57 60 56 50 47 40 41 41 40 40 42 44 48 53 56 56 48 44 36 36 38 39 40 39 41 40 40 42
44 51 56 57 55 53 55 60 52 60 64 61 61 60 58 60 50 50 48 43 41 41 47 47 49 48 48 51 54 58 60 55 43 43 36 24 29 34 38 41 38 38 39
35 44 52 60 68 65 56 45 42 44 56 52 59 64 59 60 55 47 40 38 36 31 38 49 54 55 54 58 52 62 64 50 44 53 39 21 27 21 31 31 31 32 32
32 39 44 54 63 74 69 48 27 25 36 41 50 53 53 37 35 30 33 25 18 33 49 50 48 54 53 57 60 53 66 74 68 59 58 58 39 16 17 25 28 31 32
29 31 39 46 53 62 74 68 42 11 16 29 40 43 30 17 34 35 29 22 27 42 38 39 42 49 57 54 52 50 57 67 76 67 64 57 61 48 38 23 29 32 30
36 32 31 37 49 56 62 70 63 34 6 14 24 22 29 31 41 43 35 34 38 38 36 39 41 40 46 55 49 48 55 57 61 70 72 70 65 58 40 26 27 30 29
44 40 36 41 40 51 60 60 64 56 27 4 18 30 34 38 42 35 35 40 43 37 40 42 44 46 48 46 52 50 56 60 67 74 73 73 63 53 46 37 30 23 26
42 40 34 33 36 40 41 53 50 50 42 22 4 21 17 21 24 30 35 39 44 47 47 50 50 53 53 51 44 45 44 54 58 67 66 61 53 45 41 42 40 27 16
39 37 30 29 38 38 34 41 48 35 36 30 17 14 10 3 4 14 24 36 45 48 52 56 60 59 55 45 42 42 37 47 50 48 49 46 43 40 40 38 30 25 19
33 30 16 23 37 37 28 14 41 40 33 31 25 19 13 10 14 20 28 37 43 47 56 57 59 58 51 40 36 39 42 42 51 57 55 49 44 43 40 32 22 15 8
29 31 20 30 30 37 26 24 45 42 34 26 23 18 17 22 25 30 38 46 51 52 54 56 51 48 37 39 38 41 44 56 59 58 55 52 48 43 32 22 15 5 6
22 29 29 30 35 23 29 29 37 45 37 31 26 27 26 28 33 39 42 46 47 44 48 44 34 34 35 37 41 46 41 50 60 59 56 51 42 36 24 15 13 11 11
23 29 32 30 32 31 27 23 19 37 34 30 28 28 33 40 41 45 48 41 38 34 37 31 30 31 36 34 40 45 46 51 53 47 41 38 26 24 23 19 13 14 15
29 32 29 31 31 35 37 32 32 36 31 31 33 38 42 46 48 48 40 35 28 28 27 30 32 27 25 24 27 33 37 39 37 35 30 30 30 28 24 23 22 22 19
42 41 36 35 33 32 37 27 22 24 25 23 31 38 42 42 38 39 31 25 25 21 20 21 21 16 13 11 20 31 37 38 39 42 46 40 37 33 30 27 28 21 25
49 47 52 51 47 41 34 37 26 20 20 19 25 35 38 33 32 28 26 26 19 14 14 12 9 4 6 15 27 36 46 52 49 41 36 31 25 27 22 19 28 32 30
50 51 65 58 51 43 39 48 45 36 29 25 27 31 36 27 22 23 23 15 10 10 11 5 8 23 30 29 39 42 36 37 33 33 34 33 27 25 28 35 38 35 30
55 69 57 51 42 47 45 43 37 37 34 33 28 26 31 22 19 16 12 3 4 9 16 28 32 35 39 37 34 30 32 39 38 35 31 35 33 35 37 41 37 34 30
66 56 52 50 47 40 38 38 33 28 28 28 21 23 23 15 12 8 3 9 11 27 36 41 44 45 45 38 35 38 33 36 37 35 32 33 33 32 41 39 34 31 30
56 60 58 51 44 37 34 30 27 23 19 12 18 18 12 10 11 7 11 24 34 43 42 46 48 50 49 40 37 33 33 37 36 34 33 34 35 38 37 32 27 34 29
66 62 55 53 47 38 31 31 27 22 10 15 9 8 3 6 9 17 31 40 43 44 48 50 51 48 38 41 36 29 34 34 33 36 41 43 38 35 35 31 34 35 31
69 55 58 53 42 43 31 24 20 10 15 7 2 5 9 17 26 35 47 43 44 46 51 53 51 45 44 44 39 40 49 48 48 45 43 41 38 38 39 37 36 31 28
58 69 47 38 49 22 20 17 12 16 16 13 13 19 28 37 54 51 48 51 46 49 55 55 53 48 50 49 48 52 51 50 52 50 46 43 41 42 39 35 31 28 24
70 59 53 35 27 17 18 19 25 24 22 27 28 33 47 68 57 50 60 53 54 56 56 55 52 50 55 52 48 47 46 47 52 51 49 47 43 39 36 37 38 39 36
62 43 34 26 19 16 26 29 34 37 26 35 42 53 63 65 63 60 59 60 57 54 45 44 51 57 55 51 47 48 50 50 50 46 44 43 41 41 41 37 41 40 35
45 35 25 19 24 34 38 38 43 39 39 52 57 59 69 71 74 73 71 63 55 57 59 56 55 55 54 48 45 44 43 41 43 43 41 39 39 38 35 36 33 31 31
Wind_Direction_500mb
360 6 2 348 325 317 309 296 276 259 257 254 247 232 238 244 248 256 259 261 269 272 276 277 276 274 267 259 247 242 240 243 240 246 242 249 255 260 255 249 246 247 254
8 7 6 5 358 343 325 304 271 259 249 247 242 235 236 244 244 251 255 255 268 268 270 272 272 267 263 261 247 241 237 241 237 235 234 234 243 240 236 237 240 242 242
12 10 12 16 16 8 346 315 289 270 239 240 234 235 238 245 243 249 250 249 250 268 292 284 271 262 251 252 256 244 237 237 239 237 232 238 239 203 223 229 236 235 238
8 8 8 14 14 17 10 352 316 259 237 232 227 233 238 239 263 248 228 227 270 312 305 288 277 261 257 252 255 248 242 236 237 235 234 235 241 205 195 215 228 232 230
340 349 0 6 9 16 19 16 359 304 244 236 231 232 225 197 259 236 228 253 284 289 295 297 287 271 262 262 257 256 251 239 241 239 235 232 242 242 228 205 213 223 222
346 335 339 352 358 12 17 20 18 2 341 222 197 202 194 222 246 239 244 263 269 279 292 300 304 291 279 268 261 256 253 246 241 236 234 235 230 228 218 199 203 212 216
348 341 340 342 343 349 5 14 19 19 1 52 210 205 190 220 230 241 260 269 268 282 292 296 301 305 296 279 268 259 253 251 248 243 234 234 236 237 228 223 193 189 206
341 336 327 335 341 335 340 1 10 18 20 36 135 196 219 231 250 257 255 262 276 282 287 293 296 299 296 283 271 266 261 247 237 235 231 218 224 230 223 210 196 170 188
336 332 327 335 333 326 339 345 350 7 10 25 57 95 91 59 283 280 276 278 280 282 288 294 297 300 296 287 274 268 266 239 236 228 224 226 225 215 205 194 203 190 170
340 334 340 359 352 333 312 348 349 346 1 351 13 21 19 335 323 318 310 298 295 297 295 297 299 304 298 277 272 268 260 235 230 223 218 216 212 201 197 200 210 208 181
14 12 342 331 333 349 320 334 345 340 2 3 357 346 324 311 309 303 300 297 300 302 300 300 302 305 295 281 276 265 260 245 230 214 210 198 193 193 192 188 176 191 195
1 4 4 355 8 347 356 1 299 331 348 355 359 347 326 309 300 296 298 299 301 306 308 313 325 319 299 284 278 252 247 220 208 191 190 187 176 168 162 140 109 160 184
349 344 343 343 348 335 318 316 320 309 323 336 343 341 334 327 321 299 297 306 314 327 332 343 326 313 306 279 269 237 214 203 192 180 172 163 147 130 111 118 140 141 139
330 330 329 330 329 330 325 295 278 294 298 309 318 323 322 323 322 320 310 324 329 334 332 322 321 322 304 287 252 216 185 167 156 148 138 121 110 109 120 121 109 104 116
325 325 325 321 318 319 323 321 292 278 287 299 308 307 314 322 319 323 325 332 330 328 321 311 303 296 272 229 186 165 147 139 120 110 109 110 108 102 91 88 89 108 126
315 317 320 312 306 306 307 307 311 301 309 310 305 310 323 321 319 317 325 334 325 308 303 298 294 245 162 158 151 135 117 115 109 103 101 100 91 91 91 99 125 118 110
310 311 311 305 300 301 300 297 297 293 291 308 324 323 330 318 315 314 335 331 334 347 344 32 98 107 104 106 102 106 104 100 103 93 89 91 93 102 112 116 111 109 101
306 308 306 301 297 299 296 296 295 285 282 292 319 327 333 320 306 311 324 331 31 59 99 109 106 107 99 102 100 99 102 95 96 88 88 97 98 99 109 106 105 103 99
302 300 300 295 296 294 294 293 293 291 283 284 314 331 336 309 280 277 197 109 108 116 106 97 95 96 96 94 75 82 91 109 107 93 88 87 97 105 104 97 98 97 93
304 301 305 298 292 291 293 291 288 292 295 307 297 323 333 300 239 185 130 132 124 110 107 101 98 94 89 81 86 101 109 119 99 94 93 99 95 98 98 107 103 92 85
304 303 298 296 292 297 292 288 286 288 280 228 286 332 316 227 168 136 137 129 113 108 106 102 97 90 86 73 82 108 111 99 98 96 94 96 100 101 101 96 92 90 82
305 299 298 292 288 293 286 275 264 243 192 176 248 182 156 148 139 140 130 120 116 105 101 98 84 76 79 90 96 104 101 102 93 91 93 94 98 95 91 86 82 85 82
291 303 296 274 289 271 241 229 194 185 149 184 162 153 138 136 135 131 122 113 104 104 94 92 93 99 97 100 98 91 89 90 93 94 98 96 92 88 84 79 77 80 75
300 294 294 284 276 241 200 179 171 148 174 156 151 141 139 135 126 119 113 109 105 98 97 102 100 99 100 95 92 91 90 88 87 86 87 87 84 79 81 78 75 78 75
302 298 287 270 245 196 172 169 162 183 156 153 143 141 136 127 124 114 106 105 100 102 107 98 97 97 96 91 90 88 85 82 80 82 85 85 84 78 73 74 78 72 64
315 294 267 220 181 163 160 160 168 178 161 147 148 141 134 129 125 116 115 106 103 106 100 101 102 98 90 87 82 80 82 85 88 83 75 71 69 64 63 73 71 65 67
Wind_Speed_850mb
39 46 50 48 50 48 51 59 65 64 60 57 58 49 54 57 60 56 50 47 40 41 41 40 40 42 44 48 53 56 56 48 44 36 36 38 39 40 39 41 40 40 42
44 51 56 57 55 53 55 60 52 60 64 61 61 60 58 60 50 50 48 43 41 41 47 47 49 48 48 51 54 58 60 55 43 43 36 24 29 34 38 41 38 38 39
35 44 52 60 68 65 56 45 42 44 56 52 59 64 59 60 55 47 40 38 36 31 38 49 54 55 54 58 52 62 64 50 44 53 39 21 27 21 31 31 31 32 32
32 39 44 54 63 74 69 48 27 25 36 41 50 53 53 37 35 30 33 25 18 33 49 50 48 54 53 57 60 53 66 74 68 59 58 58 39 16 17 25 28 31 32
29 31 39 46 53 62 74 68 42 11 16 29 40 43 30 17 34 35 29 22 27 42 38 39 42 49 57 54 52 50 57 67 76 67 64 57 61 48 38 23 29 32 30
36 32 31 37 49 56 62 70 63 34 6 14 24 22 29 31 41 43 35 34 38 38 36 39 41 40 46 55 49 48 55 57 61 70 72 70 65 58 40 26 27 30 29
44 40 36 41 40 51 60 60 64 56 27 4 18 30 34 38 42 35 35 40 43 37 40 42 44 46 48 46 52 50 56 60 67 74 73 73 63 53 46 37 30 23 26
42 40 34 33 36 40 41 53 50 50 42 22 4 21 17 21 24 30 35 39 44 47 47 50 50 53 53 51 44 45 44 54 58 67 66 61 53 45 41 42 40 27 16
39 37 30 29 38 38 34 41 48 35 36 30 17 14 10 3 4 14 24 36 45 48 52 56 60 59 55 45 42 42 37 47 50 48 49 46 43 40 40 38 30 25 19
33 30 16 23 37 37 28 14 41 40 33 31 25 19 13 10 14 20 28 37 43 47 56 57 59 58 51 40 36 39 42 42 51 57 55 49 44 43 40 32 22 15 8
29 31 20 30 30 37 26 24 45 42 34 26 23 18 17 22 25 30 38 46 51 52 54 56 51 48 37 39 38 41 44 56 59 58 55 52 48 43 32 22 15 5 6
22 29 29 30 35 23 29 29 37 45 37 31 26 27 26 28 33 39 42 46 47 44 48 44 34 34 35 37 41 46 41 50 60 59 56 51 42 36 24 15 13 11 11
23 29 32 30 32 31 27 23 19 37 34 30 28 28 33 40 41 45 48 41 38 34 37 31 30 31 36 34 40 45 46 51 53 47 41 38 26 24 23 19 13 14 15
29 32 29 31 31 35 37 32 32 36 31 31 33 38 42 46 48 48 40 35 28 28 27 30 32 27 25 24 27 33 37 39 37 35 30 30 30 28 24 23 22 22 19
42 41 36 35 33 32 37 27 22 24 25 23 31 38 42 42 38 39 31 25 25 21 20 21 21 16 13 11 20 31 37 38 39 42 46 40 37 33 30 27 28 21 25
49 47 52 51 47 41 34 37 26 20 20 19 25 35 38 33 32 28 26 26 19 14 14 12 9 4 6 15 27 36 46 52 49 41 36 31 25 27 22 19 28 32 30
50 51 65 58 51 43 39 48 45 36 29 25 27 31 36 27 22 23 23 15 10 10 11 5 8 23 30 29 39 42 36 37 33 33 34 33 27 25 28 35 38 35 30
55 69 57 51 42 47 45 43 37 37 34 33 28 26 31 22 19 16 12 3 4 9 16 28 32 35 39 37 34 30 32 39 38 35 31 35 33 35 37 41 37 34 30
66 56 52 50 47 40 38 38 33 28 28 28 21 23 23 15 12 8 3 9 11 27 36 41 44 45 45 38 35 38 33 36 37 35 32 33 33 32 41 39 34 31 30
56 60 58 51 44 37 34 30 27 23 19 12 18 18 12 10 11 7 11 24 34 43 42 46 48 50 49 40 37 33 33 37 36 34 33 34 35 38 37 32 27 34 29
66 62 55 53 47 38 31 31 27 22 10 15 9 8 3 6 9 17 31 40 43 44 48 50 51 48 38 41 36 29 34 34 33 36 41 43 38 35 35 31 34 35 31
69 55 58 53 42 43 31 24 20 10 15 7 2 5 9 17 26 35 47 43 44 46 51 53 51 45 44 44 39 40 49 48 48 45 43 41 38 38 39 37 36 31 28
58 69 47 38 49 22 20 17 12 16 16 13 13 19 28 37 54 51 48 51 46 49 55 55 53 48 50 49 48 52 51 50 52 50 46 43 41 42 39 35 31 28 24
70 59 53 35 27 17 18 19 25 24 22 27 28 33 47 68 57 50 60 53 54 56 56 55 52 50 55 52 48 47 46 47 52 51 49 47 43 39 36 37 38 39 36
62 43 34 26 19 16 26 29 34 37 26 35 42 53 63 65 63 60 59 60 57 54 45 44 51 57 55 51 47 48 50 50 50 46 44 43 41 41 41 37 41 40 35
45 35 25 19 24 34 38 38 43 39 39 52 57 59 69 71 74 73 71 63 55 57 59 56 55 55 54 48 45 44 43 41 43 43 41 39 39 38 35 36 33 31 31
Wind_Direction_850mb
360 6 2 348 325 317 309 296 276 259 257 254 247 232 238 244 248 256 259 261 269 272 276 277 276 274 267 259 247 242 240 243 240 246 242 249 255 260 255 249 246 247 254
8 7 6 5 358 343 325 304 271 259 249 247 242 235 236 244 244 251 255 255 268 268 270 272 272 267 263 261 247 241 237 241 237 235 234 234 243 240 236 237 240 242 242
12 10 12 16 16 8 346 315 289 270 239 240 234 235 238 245 243 249 250 249 250 268 292 284 271 262 251 252 256 244 237 237 239 237 232 238 239 203 223 229 236 235 238
8 8 8 14 14 17 10 352 316 259 237 232 227 233 238 239 263 248 228 227 270 312 305 288 277 261 257 252 255 248 242 236 237 235 234 235 241 205 195 215 228 232 230
340 349 0 6 9 16 19 16 359 304 244 236 231 232 225 197 259 236 228 253 284 289 295 297 287 271 262 262 257 256 251 239 241 239 235 232 242 242 228 205 213 223 222
346 335 339 352 358 12 17 20 18 2 341 222 197 202 194 222 246 239 244 263 269 279 292 300 304 291 279 268 261 256 253 246 241 236 234 235 230 228 218 199 203 212 216
348 341 340 342 343 349 5 14 19 19 1 52 210 205 190 220 230 241 260 269 268 282 292 296 301 305 296 279 268 259 253 251 248 243 234 234 236 237 228 223 193 189 206
341 336 327 335 341 335 340 1 10 18 20 36 135 196 219 231 250 257 255 262 276 282 287 293 296 299 296 283 271 266 261 247 237 235 231 218 224 230 223 210 196 170 188
336 332 327 335 333 326 339 345 350 7 10 25 57 95 91 59 283 280 276 278 280 282 288 294 297 300 296 287 274 268 266 239 236 228 224 226 225 215 205 194 203 190 170
340 334 340 359 352 333 312 348 349 346 1 351 13 21 19 335 323 318 310 298 295 297 295 297 299 304 298 277 272 268 260 235 230 223 218 216 212 201 197 200 210 208 181
14 12 342 331 333 349 320 334 345 340 2 3 357 346 324 311 309 303 300 297 300 302 300 300 302 305 295 281 276 265 260 245 230 214 210 198 193 193 192 188 176 191 195
1 4 4 355 8 347 356 1 299 331 348 355 359 347 326 309 300 296 298 299 301 306 308 313 325 319 299 284 278 252 247 220 208 191 190 187 176 168 162 140 109 160 184
349 344 343 343 348 335 318 316 320 309 323 336 343 341 334 327 321 299 297 306 314 327 332 343 326 313 306 279 269 237 214 203 192 180 172 163 147 130 111 118 140 141 139
330 330 329 330 329 330 325 295 278 294 298 309 318 323 322 323 322 320 310 324 329 334 332 322 321 322 304 287 252 216 185 167 156 148 138 121 110 109 120 121 109 104 116
325 325 325 321 318 319 323 321 292 278 287 299 308 307 314 322 319 323 325 332 330 328 321 311 303 296 272 229 186 165 147 139 120 110 109 110 108 102 91 88 89 108 126
315 317 320 312 306 306 307 307 311 301 309 310 305 310 323 321 319 317 325 334 325 308 303 298 294 245 162 158 151 135 117 115 109 103 101 100 91 91 91 99 125 118 110
310 311 311 305 300 301 300 297 297 293 291 308 324 323 330 318 315 314 335 331 334 347 344 32 98 107 104 106 102 106 104 100 103 93 89 91 93 102 112 116 111 109 101
306 308 306 301 297 299 296 296 295 285 282 292 319 327 333 320 306 311 324 331 31 59 99 109 106 107 99 102 100 99 102 95 96 88 88 97 98 99 109 106 105 103 99
302 300 300 295 296 294 294 293 293 291 283 284 314 331 336 309 280 277 197 109 108 116 106 97 95 96 96 94 75 82 91 109 107 93 88 87 97 105 104 97 98 97 93
304 301 305 298 292 291 293 291 288 292 295 307 297 323 333 300 239 185 130 132 124 110 107 101 98 94 89 81 86 101 109 119 99 94 93 99 95 98 98 107 103 92 85
304 303 298 296 292 297 292 288 286 288 280 228 286 332 316 227 168 136 137 129 113 108 106 102 97 90 86 73 82 108 111 99 98 96 94 96 100 101 101 96 92 90 82
305 299 298 292 288 293 286 275 264 243 192 176 248 182 156 148 139 140 130 120 116 105 101 98 84 76 79 90 96 104 101 102 93 91 93 94 98 95 91 86 82 85 82
291 303 296 274 289 271 241 229 194 185 149 184 162 153 138 136 135 131 122 113 104 104 94 92 93 99 97 100 98 91 89 90 93 94 98 96 92 88 84 79 77 80 75
300 294 294 284 276 241 200 179 171 148 174 156 151 141 139 135 126 119 113 109 105 98 97 102 100 99 100 95 92 91 90 88 87 86 87 87 84 79 81 78 75 78 75
302 298 287 270 245 196 172 169 162 183 156 153 143 141 136 127 124 114 106 105 100 102 107 98 97 97 96 91 90 88 85 82 80 82 85 85 84 78 73 74 78 72 64
315 294 267 220 181 163 160 160 168 178 161 147 148 141 134 129 125 116 115 106 103 106 100 101 102 98 90 87 82 80 82 85 88 83 75 71 69 64 63 73 71 65 67